Regional Weather Roundup
Issued by NWS

Home | Current Version | Previous Version | Text Only | Print | Product List | Glossary Off
Versions: 1 2 3 4 5 6 7 8 9 10 11 12 13 14 15 16 17 18 19 20 21 22 23 24 25 26 27 28

000
ASUS45 KPSR 280510
RWRAZ

ARIZONA HOURLY REGIONAL WEATHER ROUNDUP
NATIONAL WEATHER SERVICE PHOENIX AZ
1000 PM MST WED JUL 27 2016

NOTE: FAIR INDICATES FEW OR NO CLOUDS BELOW 12,000 FEET WITH NO
SIGNIFICANT WEATHER AND/OR OBSTRUCTIONS TO VISIBILITY.

AZZ001>003-036-280600-
NORTHWEST ARIZONA

CITY           SKY/WX    TMP DP  RH WIND       PRES   REMARKS
BULLHEAD CITY  CLEAR    104  52  17 SW7       29.71R HX 101
KINGMAN        CLEAR     87  47  24 SE3       29.98R
$$

AZZ004>008-015-016-018-280600-
NORTH CENTRAL ARIZONA

CITY           SKY/WX    TMP DP  RH WIND       PRES   REMARKS
GRAND CANYON   CLEAR     66  42  41 MISG      30.28R
WILLIAMS       PTCLDY    66  50  55 SE5       30.35S
PRESCOTT       PTCLDY    77  50  38 CALM      30.13R
FLAGSTAFF      PTCLDY    73  45  36 CALM      30.28S
PAYSON         CLEAR     82  46  28 CALM      30.13S
PAGE           CLEAR     92  28  10 S6        30.00R
$$

AZZ009>014-017-280600-
NORTHEAST ARIZONA

CITY           SKY/WX    TMP DP  RH WIND       PRES   REMARKS
WINSLOW        CLEAR     80  37  21 VRB6      30.08R
SAINT JOHNS    PTCLDY    69  36  29 W3        30.14R
WINDOW ROCK    CLEAR     68  39  34 CALM      30.25S
SHOW LOW       PTCLDY    73  48  40 S15       30.26R
$$

AZZ023-280600-
GREATER PHOENIX AREA

CITY           SKY/WX    TMP DP  RH WIND       PRES   REMARKS
PHOENIX        PTCLDY   104  56  20 S7        29.74R HX 103
BUCKEYE        CLEAR    100  55  22 SW9       29.74R
LUKE AFB       CLEAR    102  53  19 CALM      29.72R
DEER VALLEY    CLEAR    100  54  21 SW5       29.76R
SCOTTSDALE     CLEAR    101  55  21 S3        29.78R
MESA-GATEWAY   PTCLDY    95  61  31 SE16      29.80
$$

AZZ027-028-280600-
SOUTHWEST MARICOPA COUNTY AND PINAL COUNTY

CITY           SKY/WX    TMP DP  RH WIND       PRES   REMARKS
CASA GRANDE    MOCLDY    90  63  40 SE25G36   29.85R
GILA BEND      PTCLDY   103  56  20 SW12      29.74R HX 102
$$

AZZ503-504-507>509-280600-
SOUTHEAST ARIZONA

CITY           SKY/WX    TMP DP  RH WIND       PRES   REMARKS
TUCSON         LGT RAIN  78  66  66 E8        29.99F
DAVIS-MONTHAN  CLOUDY    77  68  74 SE9       29.97F
NOGALES          N/A    N/A N/A N/A MISG      30.06F
SIERRA VISTA   CLOUDY    71  64  77 VRB1      30.16R
DOUGLAS        CLOUDY    71  66  84 CALM      30.09F
SAFFORD        CLOUDY    80  60  50 SW8       29.98R
$$

AZZ020-021-025-026-031-280600-
SOUTHWEST ARIZONA

CITY           SKY/WX    TMP DP  RH WIND       PRES   REMARKS
YUMA           MOCLDY    98  64  32 S10       29.71R HX 100
$$

CAZ031-033-041-043-047-048-061-280600-
SOUTHERN CALIFORNIA

CITY           SKY/WX    TMP DP  RH WIND       PRES   REMARKS
DOWNTOWN L.A.  CLEAR     72  64  76 VRB3      29.89R
L.A. AIRPORT   PTCLDY    71  65  81 SW6       29.90R
SAN DIEGO      PTCLDY    72  66  81 NW5       29.92R
BURBANK        CLEAR     78  62  57 SE5       29.89R
ONTARIO        PTCLDY    82  50  32 W6        29.91R
RIVERSIDE      CLEAR     84  48  28 VRB5      29.91R
PALM SPRINGS   CLEAR    102  52  18 W21G30    29.74R
EL CENTRO NAS  PTCLDY    99  50  19 W10       29.71R
IMPERIAL       PTCLDY    99  58  25 SW10      29.69R
BLYTHE         CLEAR    107  56  18 SW10      29.70R HX 106
NEEDLES        PTCLDY   108  55  17 SW5       29.72R HX 107
$$

NVZ020-UTZ003-280600-
SOUTHERN NEVADA-UTAH

CITY           SKY/WX    TMP DP  RH WIND       PRES   REMARKS
LAS VEGAS      PTCLDY   102  43  13 SW9       29.79R
SALT LAKE CITY CLEAR     86  33  15 SE8       30.01S
$$

NMZ009-TXZ055-280600-
NEW MEXICO-WEST TEXAS

CITY           SKY/WX    TMP DP  RH WIND       PRES   REMARKS
ALBUQUERQUE    CLOUDY    81  43  26 SW5       30.19R
EL PASO        PTCLDY    81  61  50 E3        30.06R
$$


........................KEY........................
SKY/WX - SKY CONDITION/WEATHER
TMP    - TEMPERATURE IN FAHRENHEIT
DP     - DEW POINT IN FAHRENHEIT
RH     - RELATIVE HUMIDITY IN PERCENT
WIND   - DIRECTION AND SPEED IN MILES PER HOUR (MPH)
VRB    - VARIABLE WIND DIRECTION
PRES   - MEAN SEA LEVEL PRESSURE IN INCHES OF MERCURY
         F - FALLING PRESSURE   R - RISING PRESSURE
         S - STEADY PRESSURE
VSB    - VISIBILITY IN MILES
HX     - HEAT INDEX IN FAHRENHEIT
WCI    - WIND CHILL INDEX IN FAHRENHEIT
TC     - TEMPERATURE IN CELSIUS WHICH IS ALSO KNOWN AS
         TEMPERATURE IN CENTIGRADE
AFB    - AIR FORCE BASE
         LUKE AFB IS LUKE AIR FORCE BASE
         DAVIS-MONTHAN IS DAVIS-MONTHAN AIR FORCE BASE
NAS    - NAVAL AIR STATION
         EL CENTRO NAS IS EL CENTRO NAVAL AIR STATION
N/A    - NOT AVAILABLE





USA.gov is the U.S. government's official web portal to all federal, state and local government web resources and services.